Regional Weather Roundup
Issued by NWS

Home | Current Version | Previous Version | Text Only | Print | Product List | Glossary Off
Versions: 1 2 3 4 5 6 7 8 9 10 11 12 13 14 15 16 17 18 19 20 21 22 23 24 25 26 27 28 29 30 31 32 33 34 35 36 37 38 39 40 41 42 43 44 45 46 47 48 49 50

000
ASUS43 KMKX 232000
RWRWI

WISCONSIN REGIONAL WEATHER ROUNDUP
NATIONAL WEATHER SERVICE MILWAUKEE/SULLIVAN WI
300 PM CDT TUE MAY 23 2017

NOTE: "FAIR" INDICATES FEW OR NO CLOUDS BELOW 12,000 FEET WITH NO
SIGNIFICANT WEATHER AND/OR OBSTRUCTIONS TO VISIBILITY.

WIZ001-002-006>008-014>016-023>028-232100-
NORTHWEST WISCONSIN

CITY           SKY/WX    TMP DP  RH WIND       PRES   REMARKS
SUPERIOR ARPT  NOT AVBL
ASHLAND        CLOUDY    51  45  79 NE16      29.88R
HAYWARD        PTSUNNY   59  44  57 N12       29.82F
SIREN          CLOUDY    58  42  56 NE8       29.83F
CUMBERLAND     CLOUDY    54  45  71 NE10      29.81F
RICE LAKE      CLOUDY    55  46  69 CALM      29.83S
CHETEK         CLOUDY    56  46  70 NE3       29.82S
LADYSMITH      CLOUDY    56  44  65 NE8       29.83S
EAU CLAIRE     NOT AVBL
MENOMONIE      CLOUDY    55  47  73 N10       29.79F
NEW RICHMOND   CLOUDY    57  45  63 NE8       29.81S
OSCEOLA        CLOUDY    62  46  55 NE13      29.84S
$$

WIZ003>005-009-010-017-018-232100-
NORTH CENTRAL WISCONSIN

CITY           SKY/WX    TMP DP  RH WIND       PRES   REMARKS
MANITOWISH WTR PTSUNNY   55  47  73 E5        29.82F
ARBOR VITAE    CLOUDY    52  47  82 NE7       29.82F
WOODRUFF       CLOUDY    52  47  82 NE7       29.82F
RHINELANDER    CLOUDY    59  43  55 VRB7      29.80F
EAGLE RIVER    CLOUDY    58  42  56 NE9       29.80F
LAND O LAKES   CLOUDY    55  45  70 NE12G18   29.83S
PHILLIPS       CLOUDY    55  42  60 E6        29.80F
TOMAHAWK       CLOUDY    57  44  60 NE9       29.80F
MEDFORD        CLOUDY    55  45  70 NE9       29.77F
MERRILL        CLOUDY    57  44  61 E9        29.78F
$$

WIZ029-030-035-036-043>047-232100-
CENTRAL WISCONSIN

CITY           SKY/WX    TMP DP  RH WIND       PRES   REMARKS
WAUSAU         CLOUDY    58  43  57 NE10      29.76F
MOSINEE        CLOUDY    55  45  67 NE15G22   29.77F
MARSHFIELD     CLOUDY    59  44  57 NE17G26   29.74F
STEVENS POINT  CLOUDY    57  45  65 NE13      29.76F
WAUPACA        CLOUDY    57  47  70 NE9       29.77S
WAUTOMA        CLOUDY    57  50  77 NE14      29.74S
WISC RAPIDS    CLOUDY    58  46  64 NE15      29.75S
CAMP DOUGLAS   NOT AVBL
$$

WIZ011>013-019>022-031-037>040-048>050-232100-
NORTHEAST WISCONSIN

CITY           SKY/WX    TMP DP  RH WIND       PRES   REMARKS
ANTIGO         CLOUDY    54  47  78 E9        29.79F
SHAWANO        CLOUDY    56  49  75 NE10      29.79S
OCONTO         CLOUDY    53  47  79 NE7       29.79F
STURGEON BAY   CLOUDY    52  45  77 NE12      29.80F
GREEN BAY      CLOUDY    54  50  86 NE16      29.78S
MANITOWOC      NOT AVBL
APPLETON       LGT RAIN  54  46  76 NE13      29.75S
CLINTONVILLE   CLOUDY    54  45  71 E12G17    29.78S
OSHKOSH        CLOUDY    57  53  86 NE16G23   29.73F
$$

WIZ032>034-041-042-053>061-232100-
SOUTHWEST WISCONSIN

CITY           SKY/WX    TMP DP  RH WIND       PRES   REMARKS
LA CROSSE      CLOUDY    59  51  75 N9        29.72S
SPARTA         CLOUDY    58  52  79 N7        29.72F
VIROQUA        CLOUDY    55  53  93 MISG      29.73S
BOSCOBEL       CLOUDY    62  50  64 W6        29.71S
PRAIRIE DU CHI CLOUDY    61  49  64 W9        29.71F
PLATTEVILLE    CLOUDY    59  53  80 SW7       29.73S
$$

WIZ056-057-062-063-064-067-068-232100-
SOUTH CENTRAL WISCONSIN

CITY           SKY/WX    TMP DP  RH WIND       PRES   REMARKS
REEDSBURG      PTSUNNY   62  52  69 SE6       29.70S
BARABOO/DELLS  PTSUNNY   62  50  64 CALM      29.71S
LONE ROCK      NOT AVBL
MINERAL POINT  CLOUDY    61  54  77 S6        29.72S
MADISON        CLOUDY    62  50  64 W5        29.70F
MIDDLETON      CLOUDY    63  51  64 SW5       29.72S
WATERTOWN      PTSUNNY   66  53  62 SW5       29.70F
MONROE         CLOUDY    59  50  72 W7        29.72S
JANESVILLE     TSTM      61  59  94 SW6       29.72R FOG
$$

WIZ051-052-058>065-066-070>072-232100-
SOUTHEAST WISCONSIN

CITY           SKY/WX    TMP DP  RH WIND       PRES   REMARKS
MILWAUKEE      CLOUDY    63  54  72 VRB5      29.72F
WAUKESHA       LGT RAIN  57  54  88 SE5       29.73F
MILWAUKEE/TIMM LGT RAIN  57  52  82 CALM      29.73S
RACINE         CLOUDY    59  52  77 SE13      29.74F
KENOSHA        LGT RAIN  61  54  77 S12       29.73F
FOND DU LAC    LGT RAIN  57  52  83 NE14      29.73S
SHEBOYGAN      LGT RAIN  49  49 100 NE12      29.74F FOG
WEST BEND      PTSUNNY   63  54  72 SE7       29.71F
JUNEAU         CLOUDY    63  52  67 CALM      29.72F
$$

LSZ147-162-232100-
LAKE SUPERIOR

STATION/POSITION TIME  TEMP    WIND        PRES    WAVE
                       AIR SEA DIR/SP/G            HT/PER
                 (UTC) (F)     (DEG/KT/KT) (MB)    (FT/S)
W MID LAKE BUOY  1850   39 37   10/  6/  8 1013.0R   0
DEVILS ISLAND    1900   43      50/ 15/ 16 1012.8F
PORT WING        1740   44      30/ 16/ 18 1011.9F
SAXON HARBOR     1930   42     350/  6/  8 1011.9S
$$

LMZ867-665-643>646-232100-
LAKE MICHIGAN

STATION/POSITION TIME  TEMP    WIND        PRES    WAVE
                       AIR SEA DIR/SP/G            HT/PER
                 (UTC) (F)     (DEG/KT/KT) (MB)    (FT/S)
CHAMBERS ISLAND  1940   49     350/  7/  9 1009.5S
N MID LAKE BUOY  1850   42 39   20/  8/  8 1010.5F   0
NORTHPORT PIER   1940   49     320/  4/  6 1009.1F
SISTER BAY       1736   54     100/  8/ 12   N/A
KEWAUNEE LAKESHO 1930   48      30/ 10/ 15 1008.3F
SHEBOYGAN LAKESH 1900   45      10/ 11/ 12 1007.7F
PORT WASHINGTON  1930   50      40/  8/ 10 1007.8F
ATWATER BUOY     1809   50     140/  8/ 12 1007.0F
MILWAUKEE LAKESH 1930   53     150/  5/  6   N/A
S MID LAKE BUOY  1850   48 45  140/  8/ 10 1008.4F   1
KENOSHA   LAKESH 1900   52     180/  9/ 11 1007.1
$$

TC  - TEMPERATURE IN CELSIUS
VSB - VISIBILITY IN STATUTE MILES
WCI - WIND CHILL INDEX
HX  - HEAT INDEX





USA.gov is the U.S. government's official web portal to all federal, state and local government web resources and services.